GW5271 Weather Reports


time (UTC)temp
C
wind
direction
speed
KPH
gust
KPH
rain 1hr
cm
rain 24hr
cm
rain mn
cm
humidity
%
barometer
mb
20260510044903 6 170 0.0 0.0 0.00 0.00 0.00 99 1014.2
20260510044400 6 170 0.0 0.0 0.00 0.00 0.00 99 1014.2
20260510043857 6 220 0.0 0.0 0.00 0.00 0.00 99 1014.1
20260510043352 6 220 0.0 0.0 0.00 0.00 0.00 99 1014.2
20260510042851 6 232 0.0 0.0 0.00 0.00 0.00 99 1014.2
20260510042346 6 235 0.0 0.0 0.00 0.00 0.00 99 1013.9
20260510041843 6 239 0.0 0.0 0.00 0.00 0.00 99 1014.0
20260510041340 6 300 0.0 1.6 0.00 0.00 0.00 99 1014.0
20260510040837 7 157 0.0 1.6 0.00 0.00 0.00 99 1013.9
20260510040334 6 181 0.0 1.6 0.00 0.00 0.00 99 1013.9
20260510035829 7 182 0.0 0.0 0.00 0.00 0.00 99 1013.9
20260510035325 6 182 0.0 0.0 0.00 0.00 0.00 99 1014.0
20260510034821 6 182 0.0 0.0 0.00 0.00 0.00 99 1013.8
20260510034319 6 182 0.0 0.0 0.00 0.00 0.00 99 1014.0
20260510033815 7 182 0.0 0.0 0.00 0.00 0.00 99 1013.7
20260510033313 7 182 0.0 0.0 0.00 0.00 0.00 99 1013.7
20260510032809 7 182 0.0 0.0 0.00 0.00 0.00 99 1013.7
20260510032306 7 182 0.0 0.0 0.00 0.00 0.00 98 1013.6
20260510031801 7 182 0.0 0.0 0.00 0.00 0.00 98 1013.5
20260510031258 7 182 0.0 0.0 0.00 0.00 0.00 98 1013.5
20260510030756 7 182 0.0 0.0 0.00 0.00 0.00 98 1013.6
20260510030254 7 182 0.0 0.0 0.00 0.00 0.00 98 1013.5
20260510025751 7 182 0.0 0.0 0.00 0.00 0.00 97 1013.3
20260510025249 7 182 0.0 0.0 0.00 0.00 0.00 97 1013.1
20260510024745 7 182 0.0 0.0 0.00 0.00 0.00 98 1013.3
20260510024242 8 182 0.0 0.0 0.00 0.00 0.00 98 1013.5
20260510023738 8 182 0.0 0.0 0.00 0.00 0.00 97 1013.3
20260510023235 8 182 0.0 0.0 0.00 0.00 0.00 97 1013.3
20260510022732 8 182 0.0 0.0 0.00 0.00 0.00 97 1013.3
20260510022231 8 182 0.0 0.0 0.00 0.00 0.00 97 1013.1
20260510021726 8 182 0.0 0.0 0.00 0.00 0.00 97 1013.3
20260510021224 8 182 0.0 0.0 0.00 0.00 0.00 96 1013.3
20260510020719 8 182 0.0 0.0 0.00 0.00 0.00 94 1013.1
20260510020219 8 182 0.0 0.0 0.00 0.00 0.00 94 1013.1
20260510015715 8 182 0.0 0.0 0.00 0.00 0.00 93 1012.9
20260510015212 9 182 0.0 0.0 0.00 0.00 0.00 93 1012.8
20260510014707 9 182 0.0 0.0 0.00 0.00 0.00 94 1013.1
20260510014206 10 182 0.0 1.6 0.00 0.00 0.00 93 1012.7
20260510013706 9 182 0.0 0.0 0.00 0.00 0.00 92 1012.7
20260510013202 9 182 0.0 0.0 0.00 0.00 0.00 90 1012.5
20260510012701 10 182 0.0 0.0 0.00 0.00 0.00 87 1012.5
20260510012157 10 182 0.0 0.0 0.00 0.00 0.00 88 1012.5
20260510011652 10 182 0.0 0.0 0.00 0.00 0.00 87 1012.3
20260510011148 11 182 0.0 0.0 0.00 0.00 0.00 85 1012.4
20260510010644 11 182 0.0 0.0 0.00 0.00 0.00 83 1012.0
20260510010141 11 182 1.6 1.6 0.00 0.00 0.00 83 1012.1
20260510005637 12 244 0.0 0.0 0.00 0.00 0.00 81 1012.0
20260510005134 12 244 0.0 0.0 0.00 0.00 0.00 79 1011.9
20260510004633 13 244 0.0 0.0 0.00 0.00 0.00 77 1012.0
20260510004131 13 244 0.0 0.0 0.00 0.00 0.00 74 1011.9
20260510003627 14 244 0.0 0.0 0.00 0.00 0.00 72 1011.7
20260510003123 15 236 0.0 0.0 0.00 0.00 0.00 69 1011.7
20260510002623 16 236 0.0 0.0 0.00 0.00 0.00 67 1011.5
20260510002120 16 230 1.6 3.2 0.00 0.00 0.00 66 1011.4
20260510001617 16 246 3.2 4.8 0.00 0.00 0.00 66 1011.4
20260510001116 16 243 0.0 0.0 0.00 0.00 0.00 65 1011.6
20260510000616 16 206 0.0 1.6 0.00 0.00 0.00 63 1011.4
20260510000114 16 258 6.4 6.4 0.00 0.00 0.00 62 1011.5
20260509235610 17 259 3.2 4.8 0.00 0.00 0.00 63 1011.4
20260509235107 17 257 3.2 4.8 0.00 0.00 0.00 62 1011.4
20260509234603 17 234 0.0 6.4 0.00 0.00 0.00 62 1011.2
20260509234101 17 256 6.4 6.4 0.00 0.00 0.00 60 1011.2
20260509233558 17 279 6.4 6.4 0.00 0.00 0.00 61 1011.1
20260509233055 17 224 1.6 3.2 0.00 0.00 0.00 61 1011.1
20260509232551 17 253 4.8 9.7 0.00 0.00 0.00 60 1011.3
20260509232049 17 247 9.7 14.5 0.00 0.00 0.00 59 1011.2
20260509231545 17 302 4.8 9.7 0.00 0.00 0.00 60 1011.4
20260509231043 17 234 11.3 16.1 0.00 0.00 0.00 58 1011.3
20260509230539 18 274 1.6 6.4 0.00 0.00 0.00 60 1011.3
20260509230037 18 225 8.0 12.9 0.00 0.00 0.00 58 1011.4
20260509225532 18 292 6.4 12.9 0.00 0.00 0.00 58 1011.4
20260509225027 18 224 12.9 14.5 0.00 0.00 0.00 59 1011.2
20260509224523 18 237 6.4 12.9 0.00 0.00 0.00 59 1011.5
20260509224020 18 238 6.4 9.7 0.00 0.00 0.00 61 1011.5
20260509223517 18 232 3.2 9.7 0.00 0.00 0.00 61 1011.6
20260509223015 18 230 6.4 14.5 0.00 0.00 0.00 60 1011.4
20260509222511 18 231 11.3 12.9 0.00 0.00 0.00 60 1011.5
20260509222006 18 216 9.7 16.1 0.00 0.00 0.00 59 1011.6
20260509221502 18 199 4.8 11.3 0.00 0.00 0.00 60 1011.5
20260509220958 18 233 3.2 9.7 0.00 0.00 0.00 60 1011.8
20260509220455 18 296 6.4 11.3 0.00 0.00 0.00 59 1011.6
20260509215950 18 222 12.9 17.7 0.00 0.00 0.00 62 1011.5
20260509215446 18 220 3.2 9.7 0.00 0.00 0.00 62 1011.8
20260509214944 18 221 3.2 6.4 0.00 0.00 0.00 63 1011.9
20260509214441 18 306 6.4 9.7 0.00 0.00 0.00 60 1011.6
20260509213937 18 268 8.0 11.3 0.00 0.00 0.00 60 1011.7
20260509213433 18 303 4.8 16.1 0.00 0.00 0.00 60 1011.6
20260509212931 18 303 6.4 12.9 0.00 0.00 0.00 59 1011.6
20260509212429 18 293 3.2 12.9 0.00 0.00 0.00 58 1011.4
20260509211924 18 272 6.4 12.9 0.00 0.00 0.00 60 1011.5
20260509211420 18 288 11.3 12.9 0.00 0.00 0.00 58 1011.5
20260509210917 18 277 1.6 6.4 0.00 0.00 0.00 60 1011.6
20260509210414 18 300 6.4 11.3 0.00 0.00 0.00 58 1011.4
20260509205910 18 251 8.0 12.9 0.00 0.00 0.00 58 1011.5
20260509205409 18 301 9.7 12.9 0.00 0.00 0.00 60 1011.3
20260509204906 18 275 9.7 14.5 0.00 0.00 0.00 61 1011.4
20260509204402 18 249 6.4 11.3 0.00 0.00 0.00 59 1011.4
20260509203859 18 269 4.8 12.9 0.00 0.00 0.00 62 1011.4
20260509203355 18 253 4.8 6.4 0.00 0.00 0.00 60 1011.3
20260509202853 18 299 3.2 6.4 0.00 0.00 0.00 61 1011.4
20260509202348 18 298 9.7 14.5 0.00 0.00 0.00 57 1011.3
20260509201843 18 294 3.2 12.9 0.00 0.00 0.00 58 1011.4
20260509201339 18 287 3.2 9.7 0.00 0.00 0.00 63 1011.6
20260509200836 18 305 3.2 11.3 0.00 0.00 0.00 59 1011.4
20260509200331 18 1 9.7 14.5 0.00 0.00 0.00 58 1011.3
20260509195828 18 290 4.8 12.9 0.00 0.00 0.00 60 1011.6
20260509195328 18 202 3.2 6.4 0.00 0.00 0.00 63 1011.6
20260509194827 18 238 8.0 11.3 0.00 0.00 0.00 60 1011.7
20260509194324 18 282 0.0 4.8 0.00 0.00 0.00 63 1011.5
20260509193821 17 282 8.0 11.3 0.00 0.00 0.00 61 1011.6
20260509193320 18 277 6.4 12.9 0.00 0.00 0.00 61 1011.4
20260509192817 17 266 9.7 12.9 0.00 0.00 0.00 60 1011.5
20260509192313 17 259 6.4 11.3 0.00 0.00 0.00 61 1011.6
20260509191808 18 305 6.4 9.7 0.00 0.00 0.00 60 1011.5
20260509191304 17 293 4.8 11.3 0.00 0.00 0.00 60 1011.5
20260509190800 17 273 4.8 11.3 0.00 0.00 0.00 61 1011.5
20260509190258 17 275 6.4 9.7 0.00 0.00 0.00 61 1011.4
20260509185755 17 265 4.8 11.3 0.00 0.00 0.00 61 1011.5
20260509185251 17 313 11.3 16.1 0.00 0.00 0.00 60 1011.6
20260509184749 17 281 9.7 24.1 0.00 0.00 0.00 62 1011.7
20260509184246 17 290 4.8 16.1 0.00 0.00 0.00 60 1011.5
20260509183742 17 266 9.7 16.1 0.00 0.00 0.00 59 1011.6
20260509183238 18 294 3.2 11.3 0.00 0.00 0.00 63 1011.4
20260509182733 17 232 3.2 16.1 0.00 0.00 0.00 65 1011.2
20260509182231 17 273 9.7 14.5 0.00 0.00 0.00 59 1011.4
20260509181728 17 290 14.5 17.7 0.00 0.00 0.00 59 1011.4
20260509181225 18 199 4.8 14.5 0.00 0.00 0.00 60 1011.5
20260509180722 18 209 8.0 12.9 0.00 0.00 0.00 56 1011.4
20260509180219 17 206 8.0 11.3 0.00 0.00 0.00 61 1011.5
20260509175715 18 297 17.7 20.9 0.00 0.00 0.00 56 1011.5
20260509175212 17 272 6.4 12.9 0.00 0.00 0.00 61 1011.6
20260509174707 18 236 8.0 11.3 0.00 0.00 0.00 58 1011.4
20260509174202 18 284 6.4 14.5 0.00 0.00 0.00 56 1011.5
20260509173659 18 247 4.8 9.7 0.00 0.00 0.00 61 1011.4
20260509173155 17 282 9.7 17.7 0.00 0.00 0.00 56 1011.4
20260509172651 17 219 6.4 9.7 0.00 0.00 0.00 54 1011.6
20260509172147 17 289 8.0 16.1 0.00 0.00 0.00 54 1011.6
20260509171643 17 222 9.7 14.5 0.00 0.00 0.00 56 1011.5
20260509171140 17 274 9.7 14.5 0.00 0.00 0.00 55 1011.6
20260509170637 17 217 8.0 17.7 0.00 0.00 0.00 57 1011.7
20260509170132 17 228 11.3 17.7 0.00 0.00 0.00 56 1011.5
20260509165631 17 254 4.8 11.3 0.00 0.00 0.00 59 1011.7
20260509165127 17 189 8.0 11.3 0.00 0.00 0.00 61 1011.5
20260509164622 17 188 4.8 11.3 0.00 0.00 0.00 62 1011.9
20260509164119 16 176 6.4 9.7 0.00 0.00 0.00 63 1011.8
20260509163617 16 179 4.8 11.3 0.00 0.00 0.00 62 1011.9
20260509163112 16 151 1.6 3.2 0.00 0.00 0.00 61 1011.8
20260509162610 16 175 3.2 4.8 0.00 0.00 0.00 63 1011.7
20260509162105 15 200 1.6 3.2 0.00 0.00 0.00 60 1011.9
20260509161602 15 188 3.2 4.8 0.00 0.00 0.00 62 1011.9
20260509161102 15 157 4.8 6.4 0.00 0.00 0.00 62 1011.9
20260509160558 15 218 0.0 1.6 0.00 0.00 0.00 61 1012.1
20260509160054 15 195 0.0 0.0 0.00 0.00 0.00 63 1012.0
20260509155550 15 166 3.2 4.8 0.00 0.00 0.00 64 1012.1
20260509155047 15 226 3.2 4.8 0.00 0.00 0.00 64 1012.3
20260509154543 15 211 6.4 6.4 0.00 0.00 0.00 64 1012.4
20260509154040 15 217 3.2 4.8 0.00 0.00 0.00 66 1012.3
20260509153537 15 228 3.2 9.7 0.00 0.00 0.00 67 1012.5
20260509153034 15 205 4.8 9.7 0.00 0.00 0.00 68 1012.1
20260509152530 15 202 8.0 9.7 0.00 0.00 0.00 65 1012.1
20260509152027 15 185 6.4 6.4 0.00 0.00 0.00 69 1012.3
20260509151523 15 120 1.6 4.8 0.00 0.00 0.00 67 1012.6
20260509151021 15 153 0.0 1.6 0.00 0.00 0.00 70 1012.7
20260509150518 15 228 3.2 3.2 0.00 0.00 0.00 68 1012.9
20260509150017 14 219 1.6 1.6 0.00 0.00 0.00 71 1012.9
20260509145512 15 141 0.0 1.6 0.00 0.00 0.00 66 1012.8
20260509145007 15 109 0.0 3.2 0.00 0.00 0.00 70 1012.5
20260509144505 15 262 3.2 4.8 0.00 0.00 0.00 66 1012.4
20260509144002 15 208 3.2 3.2 0.00 0.00 0.00 69 1012.4
20260509143459 15 39 0.0 4.8 0.00 0.00 0.00 70 1012.6
20260509142955 15 136 0.0 1.6 0.00 0.00 0.00 69 1012.6
20260509142452 15 17 0.0 0.0 0.00 0.00 0.00 71 1012.5
20260509141947 15 293 1.6 1.6 0.00 0.00 0.00 72 1012.5
20260509141444 13 142 0.0 3.2 0.00 0.00 0.00 73 1012.5
20260509140941 14 128 3.2 3.2 0.00 0.00 0.00 73 1012.6
20260509140437 13 13 0.0 0.0 0.00 0.00 0.00 74 1012.4
20260509135936 13 19 1.6 3.2 0.00 0.00 0.00 76 1012.7
20260509135432 14 39 0.0 0.0 0.00 0.00 0.00 72 1012.7
20260509134930 13 234 0.0 0.0 0.00 0.00 0.00 79 1012.6
20260509134427 13 224 1.6 1.6 0.00 0.00 0.00 76 1012.7
20260509133924 13 216 0.0 0.0 0.00 0.00 0.00 77 1012.6
20260509133421 13 73 1.6 1.6 0.00 0.00 0.00 72 1012.7
20260509132919 13 34 0.0 3.2 0.00 0.00 0.00 75 1012.9
20260509132417 13 309 1.6 1.6 0.00 0.00 0.00 78 1013.0
20260509131914 12 300 1.6 4.8 0.00 0.00 0.00 76 1012.9
20260509131411 12 231 0.0 0.0 0.00 0.00 0.00 79 1012.8
20260509130908 12 206 0.0 0.0 0.00 0.00 0.00 80 1012.9
20260509130403 12 113 0.0 0.0 0.00 0.00 0.00 81 1012.8
20260509125900 12 114 0.0 0.0 0.00 0.00 0.00 83 1012.7
20260509125357 12 63 0.0 0.0 0.00 0.00 0.00 84 1013.0
20260509124852 11 10 0.0 0.0 0.00 0.00 0.00 86 1012.7
20260509124350 11 53 0.0 0.0 0.00 0.00 0.00 87 1012.8
20260509123848 11 227 0.0 0.0 0.00 0.00 0.00 89 1012.8
20260509123345 11 151 0.0 0.0 0.00 0.00 0.00 90 1012.8
20260509122840 10 172 0.0 0.0 0.00 0.00 0.00 91 1012.8
20260509122337 10 119 0.0 0.0 0.00 0.00 0.00 91 1012.8
20260509121834 10 148 0.0 0.0 0.00 0.00 0.00 92 1012.8
20260509121331 10 175 0.0 0.0 0.00 0.00 0.00 92 1012.8
20260509120830 10 29 0.0 0.0 0.00 0.00 0.00 92 1012.8
20260509120327 10 10 0.0 0.0 0.00 0.00 0.00 92 1012.8
20260509115825 10 216 0.0 0.0 0.00 0.00 0.00 93 1012.7
20260509115322 10 217 0.0 0.0 0.00 0.00 0.00 93 1013.1
20260509114819 9 159 0.0 0.0 0.00 0.00 0.00 93 1012.8
20260509114318 9 182 0.0 0.0 0.00 0.00 0.00 93 1013.1
20260509113817 9 183 0.0 0.0 0.00 0.00 0.00 94 1013.1
20260509113313 9 156 0.0 0.0 0.00 0.00 0.00 94 1013.0
20260509112810 9 166 0.0 0.0 0.00 0.00 0.00 94 1012.9
20260509112307 9 166 0.0 0.0 0.00 0.00 0.00 94 1013.0
20260509111805 8 185 0.0 0.0 0.00 0.00 0.00 94 1013.1
20260509111301 8 185 0.0 0.0 0.00 0.00 0.00 94 1012.9
20260509110759 8 151 0.0 0.0 0.00 0.00 0.00 94 1012.8
20260509110255 8 121 0.0 0.0 0.00 0.00 0.00 95 1012.8
20260509105753 8 135 0.0 0.0 0.00 0.00 0.00 95 1013.0
20260509105250 8 211 0.0 0.0 0.00 0.00 0.00 94 1012.8
20260509104747 8 207 0.0 0.0 0.00 0.00 0.00 94 1012.9
20260509104244 8 118 0.0 0.0 0.00 0.00 0.00 94 1012.8
20260509103742 8 129 0.0 0.0 0.00 0.00 0.00 93 1012.8
20260509103239 8 193 0.0 0.0 0.00 0.00 0.00 93 1012.8
20260509102738 8 115 0.0 0.0 0.00 0.00 0.00 92 1012.7
20260509102234 8 113 0.0 0.0 0.00 0.00 0.00 93 1012.7
20260509101730 8 194 0.0 0.0 0.00 0.00 0.00 93 1012.8
20260509101227 8 152 0.0 0.0 0.00 0.00 0.00 92 1012.4
20260509100724 8 139 0.0 1.6 0.00 0.00 0.00 92 1012.8
20260509100222 8 134 0.0 0.0 0.00 0.00 0.00 91 1012.9
20260509095718 8 143 0.0 0.0 0.00 0.00 0.00 92 1012.8
20260509095216 8 134 0.0 0.0 0.00 0.00 0.00 92 1012.7
20260509094712 9 145 0.0 0.0 0.00 0.00 0.00 90 1012.7
20260509094209 9 160 0.0 0.0 0.00 0.00 0.00 89 1012.8
20260509093708 9 141 0.0 0.0 0.00 0.00 0.00 90 1012.7
20260509093204 9 129 0.0 0.0 0.00 0.00 0.00 91 1012.8
20260509092702 9 141 0.0 0.0 0.00 0.00 0.00 90 1013.0
20260509092200 10 145 0.0 0.0 0.00 0.00 0.00 88 1012.8
20260509091658 10 146 0.0 0.0 0.00 0.00 0.00 86 1012.8
20260509091154 10 50 0.0 0.0 0.00 0.00 0.00 86 1012.8
20260509090652 9 30 1.6 9.7 0.00 0.00 0.00 89 1012.9
20260509090149 9 262 0.0 0.0 0.00 0.00 0.00 92 1012.8
20260509085647 9 185 0.0 0.0 0.00 0.00 0.00 92 1012.7
20260509085142 9 187 0.0 0.0 0.00 0.00 0.00 92 1012.6
20260509084640 9 231 0.0 1.6 0.00 0.00 0.00 93 1012.8
20260509084137 9 156 0.0 0.0 0.00 0.00 0.00 93 1012.7
20260509083634 9 132 0.0 0.0 0.00 0.00 0.00 93 1012.7
20260509083131 9 144 0.0 1.6 0.00 0.00 0.00 93 1012.6
20260509082628 9 67 0.0 1.6 0.00 0.00 0.00 91 1012.8
20260509082124 9 153 0.0 0.0 0.00 0.00 0.00 90 1012.7
20260509081622 10 175 1.6 3.2 0.00 0.00 0.00 90 1012.9
20260509081119 10 36 1.6 1.6 0.00 0.00 0.00 88 1012.8
20260509080617 9 46 0.0 1.6 0.00 0.00 0.00 90 1012.7
20260509080114 9 51 0.0 0.0 0.00 0.00 0.00 92 1012.6
20260509075612 9 88 0.0 0.0 0.00 0.00 0.00 94 1012.7
20260509075110 9 115 0.0 0.0 0.00 0.00 0.00 94 1012.6
20260509074606 9 115 0.0 0.0 0.00 0.00 0.00 94 1012.5
20260509074103 9 115 0.0 0.0 0.00 0.00 0.00 94 1012.5
20260509073600 9 115 0.0 0.0 0.00 0.00 0.00 94 1012.7
20260509073056 9 115 0.0 0.0 0.00 0.00 0.00 94 1012.4
20260509072552 9 115 0.0 0.0 0.00 0.00 0.00 94 1012.5
20260509072050 9 115 0.0 0.0 0.00 0.00 0.00 94 1012.3
20260509071546 9 133 0.0 0.0 0.00 0.00 0.00 94 1012.3
20260509071044 9 190 0.0 0.0 0.00 0.00 0.00 94 1012.4
20260509070541 9 134 0.0 0.0 0.00 0.00 0.00 94 1012.4
20260509070037 9 142 0.0 0.0 0.00 0.00 0.00 94 1012.5
20260509065532 9 148 0.0 0.0 0.00 0.00 0.00 94 1012.4
20260509065029 9 148 0.0 0.0 0.00 0.00 0.00 94 1012.3
20260509064527 9 148 0.0 0.0 0.00 0.00 0.00 94 1012.3
20260509064025 9 148 0.0 0.0 0.00 0.00 0.00 93 1012.4
20260509063519 9 148 0.0 0.0 0.00 0.00 0.00 91 1012.4
20260509063017 9 131 0.0 0.0 0.00 0.00 0.00 91 1012.7
20260509062514 9 131 0.0 0.0 0.00 0.00 0.00 91 1012.6
20260509062012 9 131 0.0 0.0 0.00 0.00 0.00 91 1012.6
20260509061509 9 131 0.0 0.0 0.00 0.00 0.00 91 1012.6
20260509061006 9 139 0.0 0.0 0.00 0.00 0.00 93 1012.7
20260509060503 9 139 0.0 0.0 0.00 0.00 0.00 93 1012.8
20260509055959 9 139 0.0 0.0 0.00 0.00 0.00 94 1012.7
20260509055454 9 139 0.0 0.0 0.00 0.00 0.00 94 1012.7
20260509054951 9 134 0.0 0.0 0.00 0.00 0.00 93 1012.6
20260509054448 9 120 0.0 0.0 0.00 0.00 0.00 91 1012.8
20260509053946 9 119 0.0 0.0 0.00 0.00 0.00 92 1013.1
20260509053443 9 141 0.0 0.0 0.00 0.00 0.00 92 1013.0
20260509052941 9 146 0.0 0.0 0.00 0.00 0.00 93 1013.2
20260509052438 9 138 0.0 0.0 0.00 0.00 0.00 92 1013.2
20260509051936 9 114 0.0 0.0 0.00 0.00 0.00 91 1013.1
20260509051434 9 114 0.0 0.0 0.00 0.00 0.00 90 1013.1
20260509050931 9 114 0.0 0.0 0.00 0.00 0.00 90 1013.3
20260509050427 9 114 0.0 0.0 0.00 0.00 0.00 90 1013.2
20260509045924 9 114 0.0 0.0 0.00 0.00 0.00 90 1013.2
20260509045421 9 114 0.0 0.0 0.00 0.00 0.00 91 1013.2